| time (UTC) | temp C | wind direction | speed KPH | gust KPH | rain 1hr cm | rain 24hr cm | rain mn cm | humidity % | barometer mb |
| 20260502130347 | 10 | 99 | 0.0 | 0.0 | 0.00 | 0.00 | 0.00 | 99 | 1022.6 |
| 20260502123329 | 10 | 100 | 0.0 | 0.0 | 0.00 | 0.00 | 0.00 | 99 | 1022.1 |
| 20260502122826 | 9 | 100 | 0.0 | 0.0 | 0.00 | 0.00 | 0.00 | 99 | 1021.9 |
| 20260502122322 | 9 | 99 | 0.0 | 0.0 | 0.00 | 0.00 | 0.00 | 99 | 1021.8 |
| 20260502121821 | 9 | 100 | 0.0 | 0.0 | 0.00 | 0.00 | 0.00 | 99 | 1021.9 |
| 20260502121318 | 9 | 100 | 0.0 | 0.0 | 0.00 | 0.00 | 0.00 | 99 | 1021.7 |
| 20260502120815 | 9 | 100 | 0.0 | 0.0 | 0.00 | 0.00 | 0.00 | 99 | 1021.8 |
| 20260502120311 | 9 | 100 | 0.0 | 0.0 | 0.00 | 0.00 | 0.00 | 99 | 1021.7 |
| 20260502115809 | 10 | 100 | 0.0 | 0.0 | 0.00 | 0.00 | 0.00 | 99 | 1021.7 |
| 20260502115306 | 10 | 100 | 0.0 | 0.0 | 0.00 | 0.00 | 0.00 | 99 | 1021.6 |
| 20260502114802 | 10 | 100 | 0.0 | 0.0 | 0.00 | 0.00 | 0.00 | 99 | 1021.6 |
| 20260502114259 | 10 | 100 | 0.0 | 0.0 | 0.00 | 0.00 | 0.00 | 98 | 1021.4 |
| 20260502113756 | 10 | 100 | 0.0 | 0.0 | 0.00 | 0.00 | 0.00 | 99 | 1021.5 |
| 20260502113254 | 10 | 100 | 0.0 | 0.0 | 0.00 | 0.00 | 0.00 | 99 | 1021.2 |
| 20260502112751 | 10 | 100 | 0.0 | 0.0 | 0.00 | 0.00 | 0.00 | 99 | 1021.2 |
| 20260502112249 | 10 | 100 | 0.0 | 0.0 | 0.00 | 0.00 | 0.00 | 99 | 1021.0 |
| 20260502111746 | 10 | 100 | 0.0 | 0.0 | 0.00 | 0.00 | 0.00 | 99 | 1020.8 |
| 20260502111243 | 10 | 100 | 0.0 | 0.0 | 0.00 | 0.00 | 0.00 | 99 | 1020.9 |
| 20260502110740 | 10 | 99 | 0.0 | 0.0 | 0.00 | 0.00 | 0.00 | 98 | 1020.7 |
| 20260502110238 | 10 | 99 | 0.0 | 0.0 | 0.00 | 0.00 | 0.00 | 98 | 1020.8 |
| 20260502105736 | 10 | 99 | 0.0 | 0.0 | 0.00 | 0.00 | 0.00 | 98 | 1020.8 |
| 20260502105232 | 10 | 99 | 0.0 | 0.0 | 0.00 | 0.00 | 0.00 | 98 | 1020.8 |
| 20260502104730 | 10 | 99 | 0.0 | 0.0 | 0.00 | 0.00 | 0.00 | 98 | 1020.7 |
| 20260502104227 | 10 | 99 | 0.0 | 0.0 | 0.00 | 0.00 | 0.00 | 98 | 1020.6 |
| 20260502103725 | 10 | 100 | 0.0 | 0.0 | 0.00 | 0.00 | 0.00 | 99 | 1020.7 |
| 20260502103222 | 10 | 99 | 0.0 | 0.0 | 0.00 | 0.00 | 0.00 | 98 | 1020.4 |
| 20260502102719 | 10 | 82 | 0.0 | 0.0 | 0.00 | 0.00 | 0.00 | 98 | 1020.5 |
| 20260502102216 | 10 | 82 | 0.0 | 0.0 | 0.00 | 0.00 | 0.00 | 98 | 1020.5 |
| 20260502101714 | 10 | 82 | 0.0 | 0.0 | 0.00 | 0.00 | 0.00 | 98 | 1020.6 |
| 20260502101212 | 9 | 82 | 0.0 | 0.0 | 0.00 | 0.00 | 0.00 | 98 | 1020.6 |
| 20260502100710 | 9 | 82 | 0.0 | 0.0 | 0.00 | 0.00 | 0.00 | 98 | 1020.5 |
| 20260502100208 | 9 | 82 | 0.0 | 0.0 | 0.00 | 0.00 | 0.00 | 98 | 1020.6 |
| 20260502091142 | 9 | 82 | 0.0 | 0.0 | 0.00 | 0.00 | 0.00 | 98 | 1019.8 |
| 20260502090639 | 9 | 82 | 0.0 | 0.0 | 0.00 | 0.00 | 0.00 | 98 | 1019.9 |
| 20260502090136 | 9 | 82 | 0.0 | 0.0 | 0.00 | 0.00 | 0.00 | 98 | 1019.8 |
| 20260502080104 | 9 | 82 | 0.0 | 0.0 | 0.00 | 0.00 | 0.00 | 98 | 1019.4 |
| 20260502071037 | 10 | 82 | 0.0 | 0.0 | 0.00 | 0.00 | 0.00 | 98 | 1019.6 |
| 20260502070535 | 10 | 82 | 0.0 | 0.0 | 0.00 | 0.00 | 0.00 | 98 | 1019.2 |
| 20260502070033 | 10 | 82 | 0.0 | 0.0 | 0.00 | 0.00 | 0.00 | 98 | 1019.1 |
| 20260502065532 | 10 | 82 | 0.0 | 0.0 | 0.00 | 0.00 | 0.00 | 98 | 1019.1 |
| 20260502065029 | 10 | 82 | 0.0 | 0.0 | 0.00 | 0.00 | 0.00 | 98 | 1019.2 |
| 20260502064527 | 10 | 82 | 0.0 | 0.0 | 0.00 | 0.00 | 0.00 | 98 | 1019.3 |
| 20260502064024 | 10 | 70 | 0.0 | 0.0 | 0.00 | 0.00 | 0.00 | 98 | 1019.2 |
| 20260502063522 | 10 | 70 | 0.0 | 0.0 | 0.00 | 0.00 | 0.00 | 98 | 1019.4 |
| 20260502063019 | 10 | 71 | 0.0 | 0.0 | 0.00 | 0.00 | 0.00 | 97 | 1019.4 |
| 20260502062516 | 10 | 71 | 0.0 | 0.0 | 0.00 | 0.00 | 0.00 | 98 | 1019.3 |
| 20260502062015 | 10 | 70 | 0.0 | 0.0 | 0.00 | 0.00 | 0.00 | 98 | 1019.5 |
| 20260502061512 | 10 | 69 | 0.0 | 0.0 | 0.00 | 0.00 | 0.00 | 97 | 1019.4 |
| 20260502061009 | 11 | 69 | 0.0 | 0.0 | 0.00 | 0.00 | 0.00 | 97 | 1019.5 |
| 20260502060503 | 11 | 68 | 0.0 | 0.0 | 0.00 | 0.00 | 0.00 | 97 | 1019.3 |
| 20260502060001 | 11 | 97 | 0.0 | 0.0 | 0.00 | 0.00 | 0.00 | 97 | 1019.4 |
| 20260502055458 | 11 | 97 | 0.0 | 0.0 | 0.00 | 0.00 | 0.00 | 97 | 1019.5 |
| 20260502054957 | 11 | 71 | 0.0 | 0.0 | 0.00 | 0.00 | 0.00 | 97 | 1019.7 |
| 20260502054455 | 11 | 71 | 0.0 | 0.0 | 0.00 | 0.00 | 0.00 | 97 | 1019.6 |
| 20260502053952 | 11 | 103 | 0.0 | 0.0 | 0.00 | 0.00 | 0.00 | 97 | 1019.3 |
| 20260502053449 | 11 | 74 | 0.0 | 0.0 | 0.00 | 0.00 | 0.00 | 97 | 1019.7 |
| 20260502052947 | 11 | 94 | 0.0 | 0.0 | 0.00 | 0.00 | 0.00 | 98 | 1019.7 |
| 20260502052444 | 11 | 87 | 0.0 | 0.0 | 0.00 | 0.00 | 0.00 | 98 | 1019.6 |
| 20260502051943 | 11 | 88 | 0.0 | 0.0 | 0.00 | 0.00 | 0.00 | 98 | 1019.8 |
| 20260502051441 | 11 | 105 | 0.0 | 1.6 | 0.00 | 0.00 | 0.00 | 98 | 1019.6 |
| 20260502050937 | 11 | 70 | 0.0 | 1.6 | 0.00 | 0.00 | 0.00 | 97 | 1019.4 |
| 20260502050434 | 11 | 22 | 1.6 | 1.6 | 0.00 | 0.00 | 0.00 | 98 | 1019.3 |
| 20260502045931 | 11 | 87 | 0.0 | 1.6 | 0.00 | 4.70 | 4.70 | 98 | 1019.4 |
| 20260502045428 | 11 | 80 | 0.0 | 1.6 | 0.00 | 4.70 | 4.70 | 98 | 1019.4 |
| 20260502044925 | 11 | 124 | 1.6 | 1.6 | 0.00 | 4.70 | 4.70 | 98 | 1019.4 |
| 20260502044420 | 11 | 87 | 0.0 | 1.6 | 0.00 | 4.70 | 4.70 | 98 | 1019.4 |
| 20260502043918 | 11 | 106 | 0.0 | 1.6 | 0.00 | 4.70 | 4.70 | 98 | 1019.4 |
| 20260502043416 | 11 | 96 | 0.0 | 0.0 | 0.00 | 4.70 | 4.70 | 98 | 1019.6 |
| 20260502042915 | 11 | 173 | 3.2 | 3.2 | 0.00 | 4.70 | 4.70 | 98 | 1019.3 |
| 20260502042413 | 11 | 70 | 0.0 | 1.6 | 0.00 | 4.70 | 4.70 | 98 | 1019.6 |
| 20260502041909 | 11 | 47 | 3.2 | 3.2 | 0.00 | 4.70 | 4.70 | 98 | 1019.5 |
| 20260502041407 | 11 | 61 | 1.6 | 3.2 | 0.00 | 4.70 | 4.70 | 98 | 1019.4 |
| 20260502040904 | 11 | 87 | 0.0 | 1.6 | 0.00 | 4.70 | 4.70 | 98 | 1019.5 |
| 20260502040400 | 11 | 45 | 1.6 | 1.6 | 0.00 | 4.70 | 4.70 | 98 | 1019.6 |
| 20260502035856 | 12 | 250 | 0.0 | 1.6 | 0.00 | 4.70 | 4.70 | 98 | 1019.7 |
| 20260502035353 | 12 | 21 | 0.0 | 1.6 | 0.00 | 4.70 | 4.70 | 98 | 1019.7 |
| 20260502034851 | 12 | 88 | 0.0 | 3.2 | 0.00 | 4.70 | 4.70 | 98 | 1019.4 |
| 20260502034349 | 12 | 67 | 0.0 | 4.8 | 0.00 | 4.70 | 4.70 | 98 | 1019.2 |
| 20260502033848 | 12 | 114 | 0.0 | 4.8 | 0.00 | 4.70 | 4.70 | 98 | 1019.2 |
| 20260502033344 | 12 | 105 | 0.0 | 0.0 | 0.00 | 4.70 | 4.70 | 98 | 1019.4 |
| 20260502032841 | 12 | 178 | 1.6 | 4.8 | 0.00 | 4.70 | 4.70 | 98 | 1019.2 |
| 20260502032337 | 12 | 99 | 0.0 | 1.6 | 0.00 | 4.70 | 4.70 | 98 | 1019.3 |
| 20260502031835 | 12 | 116 | 0.0 | 1.6 | 0.00 | 4.70 | 4.70 | 98 | 1019.1 |
| 20260502031333 | 12 | 103 | 0.0 | 1.6 | 0.00 | 4.70 | 4.70 | 98 | 1019.2 |
| 20260502030831 | 12 | 117 | 0.0 | 1.6 | 0.00 | 4.70 | 4.70 | 98 | 1019.0 |
| 20260502030329 | 12 | 91 | 0.0 | 1.6 | 0.00 | 4.70 | 4.70 | 98 | 1018.9 |
| 20260502025826 | 12 | 99 | 0.0 | 1.6 | 0.00 | 4.70 | 4.70 | 98 | 1018.9 |
| 20260502025324 | 12 | 74 | 0.0 | 0.0 | 0.00 | 4.70 | 4.70 | 98 | 1018.8 |
| 20260502024821 | 12 | 61 | 1.6 | 3.2 | 0.00 | 4.70 | 4.70 | 98 | 1018.7 |
| 20260502024319 | 12 | 99 | 0.0 | 1.6 | 0.00 | 4.70 | 4.70 | 98 | 1018.3 |
| 20260502023817 | 12 | 80 | 0.0 | 1.6 | 0.00 | 4.70 | 4.70 | 98 | 1018.1 |
| 20260502023314 | 12 | 116 | 1.6 | 3.2 | 0.00 | 4.70 | 4.70 | 98 | 1018.2 |
| 20260502022812 | 12 | 109 | 0.0 | 4.8 | 0.00 | 4.70 | 4.70 | 98 | 1017.9 |
| 20260502022308 | 12 | 109 | 0.0 | 3.2 | 0.00 | 4.70 | 4.70 | 98 | 1017.8 |
| 20260502021805 | 12 | 119 | 1.6 | 1.6 | 0.00 | 4.70 | 4.70 | 98 | 1017.8 |
| 20260502021302 | 12 | 232 | 1.6 | 3.2 | 0.00 | 4.70 | 4.70 | 98 | 1017.9 |
| 20260502020759 | 12 | 155 | 0.0 | 1.6 | 0.00 | 4.70 | 4.70 | 98 | 1017.9 |
| 20260502020257 | 12 | 148 | 1.6 | 3.2 | 0.00 | 4.70 | 4.70 | 98 | 1017.9 |
| 20260502015754 | 12 | 98 | 0.0 | 3.2 | 0.00 | 4.70 | 4.70 | 98 | 1017.7 |
| 20260502015250 | 12 | 82 | 0.0 | 0.0 | 0.00 | 4.70 | 4.70 | 98 | 1017.9 |
| 20260502014748 | 12 | 60 | 0.0 | 1.6 | 0.00 | 4.70 | 4.70 | 98 | 1018.0 |
| 20260502014245 | 12 | 63 | 0.0 | 1.6 | 0.00 | 4.70 | 4.70 | 98 | 1017.8 |
| 20260502013741 | 12 | 108 | 0.0 | 4.8 | 0.18 | 4.70 | 4.70 | 98 | 1017.3 |
| 20260502013236 | 12 | 253 | 0.0 | 4.8 | 0.18 | 4.70 | 4.70 | 98 | 1017.2 |
| 20260502012734 | 12 | 109 | 0.0 | 1.6 | 0.00 | 4.67 | 4.67 | 98 | 1017.2 |
| 20260502012232 | 12 | 135 | 3.2 | 3.2 | 0.00 | 4.67 | 4.67 | 98 | 1017.1 |
| 20260502011729 | 12 | 105 | 0.0 | 1.6 | 0.00 | 4.67 | 4.67 | 98 | 1017.1 |
| 20260502011224 | 12 | 97 | 0.0 | 1.6 | 0.00 | 4.67 | 4.67 | 98 | 1017.0 |
| 20260502010722 | 12 | 111 | 0.0 | 0.0 | 0.00 | 4.67 | 4.67 | 98 | 1017.0 |
| 20260502010218 | 12 | 113 | 0.0 | 1.6 | 0.13 | 4.67 | 4.67 | 98 | 1016.9 |
| 20260502005715 | 12 | 105 | 0.0 | 3.2 | 0.18 | 4.65 | 4.65 | 98 | 1017.0 |
| 20260502005213 | 12 | 131 | 0.0 | 3.2 | 0.30 | 4.65 | 4.65 | 97 | 1017.1 |
| 20260502004709 | 12 | 100 | 0.0 | 1.6 | 0.13 | 4.62 | 4.62 | 98 | 1017.3 |
| 20260502004206 | 12 | 104 | 0.0 | 4.8 | 0.00 | 4.60 | 4.60 | 98 | 1017.4 |
| 20260502003704 | 12 | 25 | 0.0 | 1.6 | 0.18 | 4.60 | 4.60 | 97 | 1017.1 |
| 20260502003201 | 12 | 107 | 1.6 | 1.6 | 0.18 | 4.60 | 4.60 | 97 | 1017.1 |
| 20260502002656 | 12 | 178 | 0.0 | 3.2 | 0.13 | 4.57 | 4.57 | 97 | 1017.0 |
| 20260502002155 | 12 | 130 | 3.2 | 3.2 | 0.13 | 4.57 | 4.57 | 97 | 1016.8 |
| 20260502001652 | 12 | 111 | 0.0 | 3.2 | 0.30 | 4.55 | 4.55 | 97 | 1016.7 |
| 20260502001149 | 12 | 95 | 0.0 | 1.6 | 0.61 | 4.55 | 4.55 | 97 | 1017.0 |
| 20260502000647 | 12 | 100 | 0.0 | 0.0 | 0.48 | 4.50 | 4.50 | 97 | 1017.0 |
| 20260502000144 | 12 | 107 | 0.0 | 1.6 | 0.36 | 4.45 | 4.45 | 97 | 1016.9 |
| 20260501235640 | 12 | 119 | 0.0 | 1.6 | 0.18 | 4.42 | 4.42 | 97 | 1016.8 |
| 20260501235136 | 12 | 123 | 1.6 | 3.2 | 0.00 | 4.39 | 4.39 | 97 | 1016.7 |
| 20260501234631 | 12 | 115 | 0.0 | 0.0 | 0.13 | 4.39 | 4.39 | 97 | 1016.6 |
| 20260501234129 | 13 | 94 | 0.0 | 0.0 | 0.13 | 4.39 | 4.39 | 97 | 1016.4 |
| 20260501233627 | 12 | 117 | 0.0 | 0.0 | 0.00 | 4.37 | 4.37 | 97 | 1016.3 |
| 20260501233124 | 12 | 115 | 0.0 | 3.2 | 0.00 | 4.37 | 4.37 | 97 | 1015.9 |
| 20260501232620 | 13 | 280 | 3.2 | 4.8 | 0.18 | 4.37 | 4.37 | 97 | 1015.1 |
| 20260501232118 | 13 | 102 | 0.0 | 3.2 | 0.30 | 4.37 | 4.37 | 97 | 1014.7 |
| 20260501231615 | 13 | 143 | 1.6 | 6.4 | 0.30 | 4.34 | 4.34 | 97 | 1014.6 |
| 20260501231114 | 13 | 102 | 0.0 | 6.4 | 0.18 | 4.32 | 4.32 | 97 | 1014.7 |
| 20260501230612 | 13 | 73 | 1.6 | 3.2 | 0.00 | 4.29 | 4.29 | 97 | 1015.3 |
| 20260501230109 | 13 | 69 | 0.0 | 3.2 | 0.00 | 4.29 | 4.29 | 97 | 1015.4 |
| 20260501225607 | 13 | 99 | 0.0 | 1.6 | 0.00 | 4.29 | 4.29 | 97 | 1015.3 |
| 20260501225103 | 13 | 6 | 0.0 | 3.2 | 0.00 | 4.29 | 4.29 | 97 | 1014.7 |
| 20260501224600 | 13 | 78 | 0.0 | 6.4 | 0.00 | 4.29 | 4.29 | 97 | 1014.2 |
| 20260501224057 | 13 | 252 | 4.8 | 6.4 | 0.00 | 4.29 | 4.29 | 97 | 1013.6 |
| 20260501223554 | 13 | 132 | 3.2 | 3.2 | 0.00 | 4.29 | 4.29 | 97 | 1013.2 |
| 20260501223050 | 14 | 46 | 0.0 | 1.6 | 0.00 | 4.29 | 4.29 | 97 | 1013.5 |
| 20260501222546 | 13 | 58 | 0.0 | 1.6 | 0.13 | 4.29 | 4.29 | 97 | 1013.8 |
| 20260501222043 | 14 | 148 | 6.4 | 6.4 | 0.30 | 4.29 | 4.29 | 97 | 1014.0 |
| 20260501221540 | 14 | 49 | 1.6 | 4.8 | 0.48 | 4.27 | 4.27 | 97 | 1014.0 |
| 20260501221037 | 14 | 118 | 1.6 | 4.8 | 0.61 | 4.24 | 4.24 | 97 | 1014.1 |
| 20260501220535 | 14 | 57 | 1.6 | 1.6 | 0.61 | 4.19 | 4.19 | 98 | 1013.7 |
| 20260501220032 | 13 | 68 | 0.0 | 1.6 | 0.36 | 4.11 | 4.11 | 97 | 1015.2 |
| 20260501215528 | 13 | 94 | 1.6 | 1.6 | 0.48 | 4.09 | 4.09 | 97 | 1015.5 |
| 20260501215023 | 14 | 109 | 0.0 | 0.0 | 0.43 | 4.06 | 4.06 | 97 | 1015.5 |
| 20260501214519 | 14 | 129 | 1.6 | 1.6 | 0.43 | 4.01 | 4.01 | 97 | 1014.9 |
| 20260501214015 | 14 | 107 | 1.6 | 3.2 | 0.79 | 3.99 | 3.99 | 97 | 1014.4 |
| 20260501213512 | 14 | 76 | 0.0 | 1.6 | 0.61 | 3.91 | 3.91 | 97 | 1014.8 |
| 20260501213008 | 14 | 106 | 0.0 | 4.8 | 0.30 | 3.86 | 3.86 | 97 | 1014.9 |
| 20260501212504 | 14 | 96 | 0.0 | 0.0 | 0.00 | 3.81 | 3.81 | 97 | 1014.9 |
| 20260501212001 | 14 | 99 | 0.0 | 4.8 | 0.00 | 3.81 | 3.81 | 97 | 1014.7 |
| 20260501211458 | 14 | 182 | 0.0 | 1.6 | 0.30 | 3.81 | 3.81 | 97 | 1014.3 |
| 20260501210956 | 14 | 195 | 4.8 | 6.4 | 0.30 | 3.78 | 3.78 | 97 | 1014.0 |
| 20260501210452 | 14 | 48 | 1.6 | 3.2 | 0.18 | 3.76 | 3.76 | 97 | 1013.8 |
| 20260501205949 | 14 | 95 | 3.2 | 6.4 | 0.13 | 3.73 | 3.73 | 97 | 1013.9 |
| 20260501205446 | 14 | 171 | 1.6 | 4.8 | 0.13 | 3.73 | 3.73 | 97 | 1013.7 |
| 20260501204943 | 15 | 64 | 0.0 | 6.4 | 0.18 | 3.71 | 3.71 | 97 | 1013.8 |
| 20260501204439 | 15 | 110 | 0.0 | 1.6 | 0.30 | 3.71 | 3.71 | 97 | 1014.3 |
| 20260501203935 | 15 | 109 | 0.0 | 1.6 | 0.30 | 3.68 | 3.68 | 97 | 1013.9 |
| 20260501203432 | 15 | 62 | 0.0 | 1.6 | 0.30 | 3.66 | 3.66 | 97 | 1013.8 |
| 20260501202930 | 15 | 117 | 0.0 | 1.6 | 0.30 | 3.63 | 3.63 | 97 | 1014.4 |
| 20260501202427 | 15 | 112 | 1.6 | 3.2 | 0.48 | 3.61 | 3.61 | 97 | 1014.2 |
| 20260501201923 | 15 | 120 | 1.6 | 3.2 | 0.18 | 3.56 | 3.56 | 97 | 1013.9 |
| 20260501201420 | 15 | 69 | 0.0 | 1.6 | 0.13 | 3.53 | 3.53 | 97 | 1014.3 |
| 20260501200917 | 15 | 102 | 0.0 | 3.2 | 0.36 | 3.51 | 3.51 | 97 | 1014.9 |
| 20260501200414 | 15 | 67 | 0.0 | 0.0 | 0.66 | 3.51 | 3.51 | 97 | 1014.2 |
| 20260501195912 | 15 | 98 | 0.0 | 0.0 | 0.30 | 3.45 | 3.45 | 97 | 1014.9 |
| 20260501195408 | 15 | 106 | 0.0 | 1.6 | 0.00 | 3.40 | 3.40 | 97 | 1014.8 |
| 20260501194904 | 15 | 57 | 0.0 | 1.6 | 0.00 | 3.40 | 3.40 | 97 | 1014.5 |
| 20260501194400 | 15 | 92 | 0.0 | 0.0 | 0.00 | 3.40 | 3.40 | 97 | 1014.8 |
| 20260501193855 | 15 | 104 | 0.0 | 1.6 | 0.00 | 3.40 | 3.40 | 97 | 1014.2 |
| 20260501193355 | 15 | 121 | 1.6 | 1.6 | 0.00 | 3.40 | 3.40 | 96 | 1013.9 |
| 20260501192852 | 15 | 130 | 0.0 | 0.0 | 0.00 | 3.40 | 3.40 | 97 | 1014.0 |
| 20260501192349 | 15 | 114 | 0.0 | 1.6 | 0.00 | 3.40 | 3.40 | 97 | 1014.4 |
| 20260501191845 | 15 | 104 | 0.0 | 1.6 | 0.00 | 3.40 | 3.40 | 97 | 1014.1 |
| 20260501191343 | 15 | 66 | 0.0 | 1.6 | 0.00 | 3.40 | 3.40 | 97 | 1013.9 |
| 20260501190839 | 15 | 61 | 0.0 | 3.2 | 0.00 | 3.40 | 3.40 | 97 | 1014.0 |
| 20260501190336 | 15 | 127 | 1.6 | 1.6 | 0.00 | 3.40 | 3.40 | 97 | 1013.5 |
| 20260501185831 | 15 | 162 | 1.6 | 3.2 | 0.00 | 3.40 | 3.40 | 97 | 1013.1 |
| 20260501185327 | 15 | 46 | 1.6 | 1.6 | 0.00 | 3.40 | 3.40 | 97 | 1012.9 |
| 20260501184823 | 15 | 162 | 0.0 | 3.2 | 0.00 | 3.40 | 3.40 | 97 | 1012.3 |
| 20260501184319 | 15 | 297 | 3.2 | 4.8 | 0.00 | 3.40 | 3.40 | 97 | 1011.7 |
| 20260501183815 | 15 | 199 | 4.8 | 14.5 | 0.00 | 3.40 | 3.40 | 98 | 1011.5 |
| 20260501183312 | 15 | 192 | 1.6 | 3.2 | 0.00 | 3.40 | 3.40 | 98 | 1011.2 |
| 20260501182808 | 15 | 94 | 0.0 | 9.7 | 0.00 | 3.40 | 3.40 | 98 | 1011.1 |
| 20260501182306 | 15 | 229 | 1.6 | 3.2 | 0.00 | 3.40 | 3.40 | 98 | 1010.8 |
| 20260501181802 | 15 | 109 | 1.6 | 4.8 | 0.13 | 3.40 | 3.40 | 98 | 1011.6 |
| 20260501181300 | 15 | 182 | 1.6 | 9.7 | 0.13 | 3.40 | 3.40 | 98 | 1011.8 |
| 20260501180757 | 15 | 182 | 3.2 | 4.8 | 0.00 | 3.38 | 3.38 | 98 | 1012.0 |
| 20260501180253 | 15 | 178 | 4.8 | 6.4 | 0.00 | 3.38 | 3.38 | 98 | 1012.3 |
| 20260501175750 | 15 | 235 | 1.6 | 3.2 | 0.00 | 3.38 | 3.38 | 98 | 1013.1 |
| 20260501175247 | 15 | 196 | 1.6 | 3.2 | 0.00 | 3.38 | 3.38 | 98 | 1013.3 |
| 20260501174743 | 15 | 68 | 1.6 | 3.2 | 0.00 | 3.38 | 3.38 | 98 | 1013.8 |
| 20260501174241 | 15 | 236 | 1.6 | 4.8 | 0.00 | 3.38 | 3.38 | 98 | 1014.1 |
| 20260501173739 | 15 | 169 | 0.0 | 3.2 | 0.00 | 3.38 | 3.38 | 98 | 1014.4 |
| 20260501173235 | 15 | 65 | 0.0 | 3.2 | 0.00 | 3.38 | 3.38 | 98 | 1014.6 |
| 20260501172731 | 15 | 137 | 0.0 | 3.2 | 0.00 | 3.38 | 3.38 | 98 | 1014.6 |
| 20260501172226 | 15 | 250 | 1.6 | 3.2 | 0.00 | 3.38 | 3.38 | 98 | 1014.9 |
| 20260501171723 | 15 | 169 | 3.2 | 4.8 | 0.00 | 3.38 | 3.38 | 98 | 1015.2 |
| 20260501171220 | 15 | 74 | 0.0 | 1.6 | 0.18 | 3.38 | 3.38 | 98 | 1014.9 |
| 20260501170717 | 15 | 184 | 1.6 | 1.6 | 0.18 | 3.38 | 3.38 | 98 | 1015.4 |
| 20260501170213 | 15 | 97 | 0.0 | 1.6 | 0.00 | 3.35 | 3.35 | 98 | 1015.5 |
| 20260501165711 | 15 | 141 | 3.2 | 3.2 | 0.00 | 3.35 | 3.35 | 98 | 1015.6 |
| 20260501165208 | 15 | 129 | 0.0 | 1.6 | 0.00 | 3.35 | 3.35 | 98 | 1015.7 |
| 20260501164706 | 15 | 93 | 3.2 | 4.8 | 0.00 | 3.35 | 3.35 | 98 | 1015.9 |
| 20260501164203 | 15 | 109 | 0.0 | 0.0 | 0.00 | 3.35 | 3.35 | 98 | 1016.1 |
| 20260501163659 | 15 | 92 | 0.0 | 1.6 | 0.00 | 3.35 | 3.35 | 98 | 1016.1 |
| 20260501163156 | 15 | 60 | 0.0 | 1.6 | 0.00 | 3.35 | 3.35 | 98 | 1016.2 |
| 20260501162652 | 15 | 84 | 0.0 | 0.0 | 0.00 | 3.35 | 3.35 | 98 | 1016.2 |
| 20260501162149 | 15 | 62 | 0.0 | 1.6 | 0.13 | 3.35 | 3.35 | 98 | 1016.8 |
| 20260501161646 | 15 | 105 | 0.0 | 3.2 | 0.13 | 3.35 | 3.35 | 98 | 1016.7 |
| 20260501161143 | 15 | 100 | 0.0 | 1.6 | 0.00 | 3.33 | 3.33 | 98 | 1016.9 |
| 20260501160640 | 15 | 122 | 0.0 | 1.6 | 0.18 | 3.33 | 3.33 | 98 | 1017.0 |
| 20260501160137 | 15 | 97 | 0.0 | 1.6 | 0.30 | 3.33 | 3.33 | 98 | 1016.9 |
| 20260501155633 | 15 | 231 | 0.0 | 3.2 | 0.30 | 3.30 | 3.30 | 98 | 1017.1 |
| 20260501155131 | 15 | 104 | 0.0 | 4.8 | 0.18 | 3.28 | 3.28 | 98 | 1017.1 |
| 20260501154628 | 15 | 85 | 0.0 | 0.0 | 0.13 | 3.25 | 3.25 | 98 | 1017.2 |
| 20260501154125 | 15 | 8 | 1.6 | 1.6 | 0.30 | 3.25 | 3.25 | 98 | 1016.5 |
| 20260501153623 | 15 | 110 | 1.6 | 1.6 | 0.18 | 3.23 | 3.23 | 98 | 1016.5 |
| 20260501153119 | 15 | 74 | 0.0 | 1.6 | 0.00 | 3.20 | 3.20 | 98 | 1016.5 |
| 20260501152615 | 15 | 101 | 0.0 | 1.6 | 0.00 | 3.20 | 3.20 | 98 | 1016.4 |
| 20260501152113 | 15 | 123 | 1.6 | 4.8 | 0.00 | 3.20 | 3.20 | 98 | 1016.3 |
| 20260501151609 | 15 | 21 | 1.6 | 4.8 | 0.00 | 3.20 | 3.20 | 98 | 1016.0 |
| 20260501151106 | 15 | 66 | 0.0 | 4.8 | 0.00 | 3.20 | 3.20 | 98 | 1015.9 |
| 20260501150601 | 15 | 46 | 0.0 | 3.2 | 0.00 | 3.20 | 3.20 | 98 | 1015.8 |
| 20260501150059 | 15 | 110 | 0.0 | 6.4 | 0.00 | 3.20 | 3.20 | 98 | 1015.8 |
| 20260501145554 | 15 | 94 | 1.6 | 4.8 | 0.00 | 3.20 | 3.20 | 98 | 1015.9 |
| 20260501145053 | 15 | 317 | 1.6 | 4.8 | 0.00 | 3.20 | 3.20 | 98 | 1015.8 |
| 20260501144549 | 15 | 58 | 0.0 | 3.2 | 0.13 | 3.20 | 3.20 | 98 | 1015.7 |
| 20260501144044 | 15 | 113 | 0.0 | 4.8 | 0.13 | 3.20 | 3.20 | 98 | 1015.6 |
| 20260501143541 | 15 | 347 | 1.6 | 3.2 | 0.00 | 3.17 | 3.17 | 98 | 1015.7 |
| 20260501143038 | 15 | 135 | 1.6 | 3.2 | 0.18 | 3.17 | 3.17 | 98 | 1015.8 |
| 20260501142535 | 15 | 68 | 0.0 | 0.0 | 0.18 | 3.15 | 3.15 | 98 | 1016.2 |
| 20260501142031 | 15 | 106 | 0.0 | 1.6 | 0.30 | 3.15 | 3.15 | 98 | 1016.7 |
| 20260501141527 | 15 | 97 | 0.0 | 1.6 | 0.13 | 3.12 | 3.12 | 98 | 1016.7 |
| 20260501141025 | 15 | 64 | 0.0 | 1.6 | 0.18 | 3.10 | 3.10 | 98 | 1016.5 |
| 20260501140521 | 15 | 66 | 1.6 | 3.2 | 0.00 | 3.07 | 3.07 | 98 | 1016.8 |
| 20260501140017 | 15 | 63 | 0.0 | 1.6 | 0.00 | 3.07 | 3.07 | 98 | 1016.6 |
| 20260501135514 | 15 | 89 | 1.6 | 4.8 | 0.13 | 3.07 | 3.07 | 98 | 1016.5 |
| 20260501135012 | 15 | 109 | 0.0 | 3.2 | 0.13 | 3.07 | 3.07 | 98 | 1015.9 |
| 20260501134508 | 15 | 124 | 3.2 | 3.2 | 0.00 | 3.05 | 3.05 | 98 | 1015.9 |
| 20260501134005 | 15 | 148 | 1.6 | 1.6 | 0.30 | 3.05 | 3.05 | 98 | 1015.8 |
| 20260501133501 | 15 | 83 | 1.6 | 4.8 | 0.30 | 3.02 | 3.02 | 98 | 1015.5 |